Theta_e
310 312 313 314 315 318 318 317 320 324 325 326 326 326 325 324 325 329 331 331 330 331 330 327 328 330 331 330 328 324 321 321 320 317 318 319 320 319 320 321 320 322 322 320 320 320 321 320 322 322 324 326 327 326 325 322 315 317 328 328 324 326 325 321 321 317 315 317 314 314 317 320 321 317 317 318 319 319 320 322 324 325 323 322 323 322 327 329
310 312 312 313 314 316 318 317 318 321 325 326 326 326 326 324 325 329 331 330 329 330 329 327 329 330 330 328 325 322 319 320 320 318 319 319 319 319 319 321 321 322 322 321 320 321 322 322 322 322 324 326 327 326 325 321 315 319 324 323 327 330 322 316 317 314 313 314 313 314 315 318 320 317 318 319 319 320 322 323 323 326 324 323 323 321 326 329
309 311 312 312 313 314 316 317 317 318 322 325 326 327 327 325 325 327 329 328 329 330 327 327 329 330 327 325 322 320 319 320 320 321 323 322 321 322 320 320 322 322 322 322 320 320 322 322 323 323 325 326 325 326 325 320 316 317 317 321 328 324 315 313 313 312 312 312 312 313 314 316 317 317 318 318 319 322 323 322 322 325 324 323 323 321 324 328
309 310 311 312 312 313 315 316 317 317 319 322 324 326 327 327 325 325 326 325 328 329 326 327 328 328 325 321 320 320 320 321 321 322 323 323 323 323 321 321 321 322 322 322 321 321 321 322 324 325 326 326 325 325 323 318 316 315 315 322 321 314 313 313 311 312 312 312 312 312 313 315 316 316 318 317 319 323 322 320 320 321 321 322 323 322 323 326
309 309 311 312 312 312 313 315 318 319 319 318 321 325 326 327 326 326 325 322 326 329 326 327 327 325 322 320 320 321 321 323 322 321 322 321 321 322 321 321 320 322 322 322 323 322 323 322 324 326 327 326 324 326 323 315 313 314 313 316 313 310 313 312 310 311 311 311 312 312 314 315 315 315 317 317 319 321 319 318 319 318 319 320 322 322 322 324
309 309 310 312 312 312 312 313 317 320 320 318 319 323 325 326 325 326 326 322 325 328 326 326 326 322 320 321 322 322 322 323 321 321 322 320 320 321 321 321 321 321 321 322 323 323 324 323 325 326 327 326 325 328 324 313 312 314 312 311 310 310 311 311 311 311 311 311 312 312 314 314 314 315 316 317 318 318 317 318 318 318 319 320 321 322 322 322
309 309 309 311 312 312 312 311 314 318 321 320 317 320 324 326 326 325 326 323 322 326 326 326 324 320 321 322 323 322 321 322 319 320 321 320 320 320 321 322 322 322 322 323 323 323 324 324 326 326 326 327 326 327 323 313 312 316 313 310 310 310 310 311 311 311 312 312 312 313 313 313 314 315 315 316 318 318 317 317 318 318 319 319 321 323 322 321
309 309 309 310 311 312 312 311 311 314 319 321 318 318 322 327 327 326 326 323 323 325 326 326 322 320 322 323 323 321 319 320 319 319 320 319 319 319 321 323 323 323 323 324 324 325 325 324 326 326 327 327 326 325 321 316 318 320 315 310 310 310 311 313 312 312 313 312 313 312 312 313 314 314 313 315 318 317 318 318 318 318 318 319 320 321 322 322
310 310 309 309 310 311 312 312 311 311 316 320 320 318 322 326 327 327 327 325 325 326 327 325 322 321 323 323 322 319 318 320 319 319 319 319 319 318 320 322 323 325 325 325 325 325 326 325 326 326 327 325 324 323 319 322 326 321 316 312 312 313 313 315 313 311 312 312 313 313 312 313 313 313 313 316 317 316 317 318 318 318 317 318 318 319 321 321
309 309 309 309 310 310 312 312 312 310 313 319 320 318 320 324 326 326 326 326 326 326 325 323 321 322 322 321 320 318 319 319 318 319 319 319 320 320 320 321 322 324 324 324 324 324 324 324 325 326 326 324 323 322 319 324 327 319 315 315 315 315 316 318 317 314 312 312 312 314 314 312 312 313 315 317 316 316 316 317 318 318 317 318 317 318 319 320
309 309 309 309 309 310 311 312 312 311 311 316 320 320 317 319 325 327 326 325 325 326 324 322 321 322 321 320 318 317 319 318 317 317 318 319 320 321 321 321 322 323 323 323 322 322 321 322 324 325 326 324 323 321 319 321 321 316 315 318 317 318 319 320 319 316 313 312 312 313 312 311 311 313 316 316 316 316 316 317 317 317 318 318 317 318 319 320
308 309 309 309 309 309 310 311 312 311 310 312 317 320 318 319 324 327 325 323 324 325 324 321 322 321 320 320 318 317 318 318 317 316 318 319 319 320 320 320 321 320 321 320 320 320 319 321 322 323 326 325 323 321 322 321 319 317 317 323 325 322 322 321 320 317 313 313 313 312 313 314 312 313 316 315 315 316 315 316 317 317 318 317 318 318 318 319
308 308 308 309 309 309 310 310 311 312 310 310 314 319 320 321 325 327 325 324 322 324 324 321 321 321 319 319 318 317 318 318 318 317 318 319 318 319 319 319 320 320 320 319 319 320 321 323 322 324 325 324 322 322 323 318 317 318 316 321 326 327 329 322 315 316 314 312 312 312 316 321 317 313 315 315 314 315 315 316 316 316 317 317 317 318 318 319
307 308 308 308 309 309 309 310 311 312 312 310 311 317 320 321 324 327 326 325 323 323 323 321 321 320 319 318 318 317 317 318 319 317 318 319 319 320 320 319 319 319 319 318 320 321 322 324 324 324 324 323 321 319 320 317 318 321 317 319 322 327 336 324 309 311 314 312 312 312 315 320 319 315 315 314 314 315 315 315 316 316 316 317 317 317 318 318
307 307 308 308 308 308 309 309 310 311 312 311 309 314 319 321 323 326 327 325 324 324 323 321 320 320 318 318 318 317 317 317 318 318 319 319 319 319 319 318 318 317 317 317 318 319 321 324 325 324 321 321 320 319 323 323 322 323 323 324 321 322 331 322 311 311 313 312 310 312 315 316 316 314 314 314 313 314 314 315 315 315 316 316 317 317 318 318
306 306 307 308 308 308 308 308 309 310 311 311 309 311 318 321 321 324 327 326 325 324 322 320 320 319 318 318 318 317 317 316 317 318 319 320 319 319 318 319 319 318 319 319 320 320 323 325 323 321 319 318 319 321 325 325 323 323 325 327 323 320 321 319 314 310 310 312 310 311 315 317 316 312 312 313 313 313 313 314 314 314 315 315 316 316 317 317
306 306 307 307 308 308 308 308 309 309 310 311 310 310 316 320 320 321 325 327 325 323 321 320 319 319 319 318 318 318 316 316 317 318 319 320 320 320 321 322 322 322 323 323 322 322 324 323 320 319 318 318 319 321 326 327 325 322 322 325 323 318 316 318 317 310 308 311 311 311 312 315 317 313 312 312 311 312 312 313 314 314 315 314 315 316 316 316
306 306 306 307 307 307 308 308 308 309 310 311 310 310 313 318 320 322 324 326 325 323 321 320 319 319 319 318 318 318 317 316 317 318 319 320 321 321 323 324 323 323 322 321 320 321 321 319 317 319 319 319 318 321 328 329 327 324 321 323 322 318 315 316 316 311 310 311 311 312 311 312 314 313 313 313 311 311 311 312 313 313 314 314 315 315 315 315
306 306 306 306 306 307 307 307 308 308 309 310 311 311 312 315 320 323 324 325 323 322 322 320 319 319 320 318 318 319 317 316 318 319 319 320 321 322 323 324 323 321 320 318 317 317 317 316 317 320 320 320 318 321 327 327 327 326 321 321 323 321 317 314 314 311 308 311 312 312 312 311 311 312 313 313 311 310 311 311 312 312 313 313 314 314 315 315
305 305 305 305 306 306 306 307 307 308 308 310 311 312 313 315 320 323 324 323 323 322 321 321 319 318 318 318 318 319 318 317 318 320 319 320 321 321 321 321 320 318 318 317 316 315 317 319 319 321 321 319 319 321 325 325 325 323 320 321 320 320 319 314 313 310 306 310 315 312 312 311 311 311 311 312 311 310 310 310 311 312 312 313 313 314 314 314
304 305 304 305 305 305 306 306 307 308 308 309 310 312 314 316 320 324 323 323 323 322 320 320 319 318 318 318 318 319 319 319 319 320 319 319 320 319 318 317 316 316 316 314 314 314 317 321 321 321 320 319 319 321 322 322 323 322 320 321 318 317 318 314 311 311 307 309 314 313 311 311 311 311 310 311 310 309 310 310 311 312 312 313 313 313 314 314
304 304 304 304 304 305 305 306 306 307 308 309 310 311 313 314 318 323 323 322 322 321 320 319 318 318 318 319 318 318 319 319 319 319 319 318 319 318 315 315 317 315 313 312 314 316 318 320 320 319 317 318 319 318 319 320 320 322 320 318 319 316 316 315 311 312 310 309 315 315 311 310 310 310 309 309 309 310 311 311 312 313 313 313 313 314 314 314
305 305 304 304 304 304 305 306 306 306 307 308 309 311 311 312 317 322 323 322 321 320 320 319 318 318 318 319 319 318 319 319 319 319 318 316 317 317 314 315 317 314 312 314 316 317 319 320 317 315 315 318 319 316 317 318 317 319 319 318 320 315 316 320 314 311 311 309 312 315 311 310 310 310 310 309 309 310 311 311 312 312 312 313 314 314 314 314
304 304 303 304 305 306 306 307 308 307 307 308 308 309 311 312 316 321 321 320 320 319 320 319 317 318 318 318 319 319 319 320 319 319 318 316 316 316 314 315 316 313 313 315 316 318 319 317 314 314 315 318 319 317 316 318 317 316 317 319 319 314 313 316 313 312 314 311 310 312 313 313 313 313 312 311 309 309 310 310 311 312 312 313 313 313 314 314
304 304 304 304 305 307 307 308 308 308 307 308 308 308 310 311 314 321 320 319 319 318 319 319 317 318 317 318 319 319 320 320 319 319 317 316 317 315 314 315 316 315 315 315 316 318 317 313 313 316 317 318 319 318 317 319 320 317 316 318 316 313 313 314 316 316 317 317 312 312 317 319 320 316 314 314 312 310 309 307 308 312 312 312 313 314 315 315
303 303 304 304 306 307 307 308 308 308 308 309 308 306 310 310 313 319 320 319 319 317 318 319 318 318 318 319 319 319 321 319 319 319 317 317 316 315 315 314 314 315 314 314 316 317 314 311 313 316 317 318 319 318 317 318 320 319 318 316 313 314 315 317 320 318 318 320 313 310 316 319 318 315 313 315 315 312 311 308 307 310 311 311 313 315 316 316
302 302 302 303 305 306 307 308 309 309 309 310 307 306 309 310 312 318 320 321 320 317 318 318 318 319 318 319 319 319 322 319 317 318 317 317 316 315 316 314 314 314 312 315 320 317 313 312 314 316 317 318 318 318 317 317 320 321 317 314 314 315 316 318 321 319 318 319 315 312 314 315 314 314 314 314 314 313 312 311 308 307 310 312 314 316 316 316
301 301 302 303 305 306 307 309 310 309 309 308 306 307 309 309 313 318 320 323 320 317 317 317 316 318 317 319 319 318 319 318 318 317 315 316 315 314 315 314 315 315 312 317 323 316 312 315 316 315 317 317 317 318 317 316 319 319 314 313 315 316 318 322 321 318 316 316 316 315 313 315 317 317 316 314 313 314 313 313 311 308 312 313 314 316 316 316
301 301 302 303 305 306 308 309 311 311 308 306 307 307 308 310 315 319 321 324 320 316 317 317 317 317 318 319 317 315 316 317 317 315 313 314 314 314 315 314 314 314 313 316 320 315 311 313 314 314 316 316 318 318 316 317 318 314 312 314 316 317 319 321 320 318 318 318 318 317 315 316 320 320 317 314 312 313 312 314 312 309 313 314 314 316 315 317
301 302 303 304 305 307 310 311 311 311 307 307 308 308 310 313 318 321 323 323 318 316 316 316 316 317 318 318 315 314 316 315 314 312 312 311 312 313 314 314 313 314 315 315 314 311 308 309 311 313 314 314 315 314 313 316 315 311 312 314 315 319 322 322 322 318 318 319 318 317 316 315 319 319 317 315 314 314 312 314 313 310 312 314 315 315 315 316
302 302 303 305 306 309 312 313 312 311 309 309 310 311 314 316 319 323 324 320 317 316 316 316 317 318 319 317 316 316 316 313 311 312 313 312 312 313 313 315 314 315 317 315 313 310 308 311 312 311 312 311 312 313 311 311 311 312 316 315 315 321 323 323 323 319 320 320 314 313 313 313 318 319 315 313 314 314 312 313 315 312 311 314 315 315 315 315
302 303 304 305 308 310 312 313 313 311 310 310 311 313 316 317 320 323 321 318 317 317 316 316 318 319 318 317 317 316 315 313 312 313 314 314 313 314 316 316 316 318 319 317 315 311 311 313 310 308 310 312 314 315 312 310 311 313 316 316 318 321 321 321 321 319 320 318 310 309 311 312 315 316 314 313 312 313 310 308 311 310 310 313 314 313 313 313
302 303 304 306 309 310 312 314 313 311 310 310 312 315 315 317 321 322 318 316 318 317 316 317 318 319 318 317 317 316 315 314 313 314 314 313 315 315 315 315 315 319 320 316 314 312 312 312 308 308 310 311 314 315 314 313 312 312 313 317 321 320 321 322 320 319 321 318 310 308 311 314 316 315 314 314 313 313 310 307 309 310 310 312 311 312 312 312
303 303 305 308 310 312 313 314 313 311 311 311 313 316 315 316 319 319 315 315 315 315 316 317 318 318 318 318 316 316 316 315 314 315 313 313 316 316 314 313 314 317 317 316 314 313 315 313 310 311 311 311 314 314 315 315 312 313 314 317 320 319 322 324 321 321 322 318 310 308 315 321 322 317 312 310 309 309 310 310 310 310 311 312 311 312 313 313
303 304 306 309 312 314 314 314 312 311 312 312 314 316 316 318 319 317 315 313 314 315 316 317 317 319 318 316 315 315 316 315 314 315 314 314 316 316 315 314 313 314 316 317 315 312 315 314 309 308 308 311 314 312 313 315 314 315 315 316 317 319 322 321 318 317 318 318 314 311 317 320 319 317 311 309 308 306 307 309 309 310 311 311 311 312 312 313
303 305 308 311 314 315 314 313 312 311 312 313 314 315 316 318 317 315 314 313 313 315 316 317 317 318 317 315 315 316 314 314 315 316 314 314 315 315 316 314 311 312 315 317 315 313 314 312 308 307 307 310 312 310 311 314 316 316 315 315 315 316 320 318 314 311 312 318 317 312 315 316 316 317 314 312 313 310 308 307 307 309 311 309 310 311 311 311
303 306 310 313 315 315 313 312 311 312 313 313 314 315 316 317 314 312 313 313 314 315 317 318 317 316 316 314 315 315 314 315 316 316 315 315 315 314 315 314 311 311 313 313 314 313 313 311 308 309 309 307 307 309 309 309 312 315 316 316 312 312 317 318 315 313 312 317 318 313 314 315 316 320 320 315 313 314 312 309 306 308 309 309 311 311 311 311
303 308 312 314 314 314 313 312 311 312 313 313 314 315 316 315 312 311 313 314 315 316 317 319 318 315 315 315 314 314 316 317 317 317 316 316 317 315 314 314 310 310 310 310 312 313 314 314 310 309 310 308 306 309 311 307 307 312 315 315 314 316 318 316 316 319 316 316 319 317 314 313 313 317 318 315 314 316 315 312 310 308 308 309 310 311 311 311
305 310 314 313 313 313 312 311 312 313 313 313 314 314 314 313 311 311 313 314 315 317 318 318 317 316 315 316 314 314 317 318 317 318 316 316 318 315 313 313 310 309 308 309 313 313 314 318 313 308 309 309 308 309 312 311 308 309 311 311 314 317 318 316 315 319 320 318 319 320 318 317 315 315 316 315 314 314 315 316 313 309 309 310 310 310 311 310
308 313 313 313 313 313 312 312 313 313 313 313 313 313 313 312 311 311 313 315 316 317 318 318 317 316 316 315 315 316 318 318 317 319 318 317 316 313 312 312 309 308 308 309 314 314 313 316 314 309 307 309 311 311 312 312 310 310 311 312 312 311 314 317 315 316 320 320 319 319 319 321 321 316 314 314 313 313 314 316 313 309 310 311 310 310 310 310
311 313 312 313 313 312 312 313 313 313 313 314 314 313 313 312 312 312 313 315 316 317 317 317 316 317 315 315 315 316 318 317 317 319 318 316 315 313 313 310 308 309 309 309 313 316 314 313 312 311 308 310 315 313 311 311 311 311 312 312 313 312 314 317 315 314 315 317 320 319 315 319 322 316 313 315 314 311 309 309 309 309 310 311 310 309 310 310
312 312 312 313 312 312 313 313 313 314 313 314 313 312 311 312 313 313 313 315 316 317 317 316 317 316 315 315 315 316 317 317 317 318 317 315 316 314 312 308 307 308 310 312 312 313 314 313 311 311 311 312 312 306 303 307 310 312 312 312 314 314 314 318 320 317 314 313 316 315 314 317 317 313 313 313 310 305 304 304 305 307 309 310 310 310 310 311
311 311 312 313 312 312 313 314 314 314 313 314 313 311 310 312 313 313 313 314 315 316 317 316 316 316 316 316 315 316 316 316 317 317 315 314 315 312 308 307 308 309 310 313 312 310 312 313 312 311 311 313 311 305 303 306 309 311 311 312 314 314 314 320 324 321 316 315 314 312 314 316 314 311 307 303 302 303 306 306 306 308 311 310 309 310 311 312
311 312 313 312 311 311 313 315 315 314 314 314 313 312 311 311 312 313 314 314 314 316 317 316 315 316 316 315 314 315 316 316 316 314 313 314 312 308 306 307 309 310 310 311 311 311 313 313 311 311 312 314 314 311 309 308 309 313 314 313 314 314 314 317 318 315 315 318 317 315 315 314 315 316 312 307 307 306 307 308 309 310 311 311 310 310 311 311
312 313 313 312 312 312 313 314 314 314 313 312 312 312 311 309 311 313 315 315 314 316 317 316 316 316 315 315 315 315 315 317 316 312 312 313 309 305 306 308 309 310 310 311 310 312 316 314 312 313 314 314 314 314 313 311 310 314 316 314 313 313 313 313 314 314 314 315 315 315 315 314 314 316 318 321 320 313 309 308 309 309 310 310 310 310 311 311
313 314 314 313 312 311 312 313 313 313 312 310 311 312 311 311 310 312 314 314 313 315 316 316 316 316 314 314 314 314 314 315 315 312 312 312 309 305 305 308 309 309 310 310 310 314 319 315 313 314 314 313 315 315 314 312 311 313 314 312 311 311 311 312 314 314 314 314 314 314 314 315 317 317 319 324 322 317 312 308 308 310 310 310 310 310 311 311
312 313 314 314 313 312 312 312 313 313 311 310 311 310 312 312 310 311 314 312 310 313 315 315 315 315 315 314 314 314 313 313 313 312 312 310 309 306 306 307 309 309 310 310 309 314 318 314 313 314 313 314 319 317 314 312 312 312 312 311 312 311 311 312 313 314 314 314 314 314 313 314 316 317 318 319 317 315 311 308 309 310 309 310 311 310 311 311
311 313 313 313 313 313 312 311 312 313 312 311 311 310 312 313 311 311 312 310 310 313 314 314 315 315 315 315 315 314 313 313 312 312 311 309 308 308 307 308 308 308 310 311 309 312 316 313 312 313 312 315 317 314 312 313 312 312 312 311 311 311 311 312 312 313 314 314 313 315 317 315 314 315 315 314 314 312 311 310 310 311 311 312 311 311 311 311
311 312 310 311 313 312 311 310 310 312 312 311 311 310 312 313 312 313 312 309 311 314 314 314 315 315 315 315 315 314 313 313 313 311 310 309 308 308 308 309 309 307 309 312 309 309 312 312 312 313 313 313 313 311 311 313 313 312 313 311 311 311 311 311 311 311 313 313 312 315 317 314 313 315 314 311 310 310 310 310 310 311 312 312 312 312 311 311
311 311 310 311 312 311 310 310 310 312 312 311 311 311 312 313 313 313 312 311 312 314 314 314 315 314 315 315 315 314 313 314 314 312 310 309 309 309 309 311 310 307 308 311 309 309 312 311 311 315 314 310 310 310 311 312 312 313 313 312 311 311 310 310 311 311 312 312 311 312 314 312 311 312 310 309 309 310 310 310 310 311 311 311 311 312 311 312
311 311 310 312 313 311 310 310 310 312 312 311 312 311 312 313 313 313 312 311 312 314 314 315 315 314 314 315 315 315 313 314 314 311 309 310 310 309 310 310 309 308 309 311 310 312 316 312 310 314 314 309 309 312 313 311 310 312 313 312 311 310 310 310 311 311 312 311 311 312 312 312 311 309 308 308 309 309 309 310 310 310 311 311 311 311 311 312
310 311 310 312 312 311 310 310 311 312 312 312 311 311 312 313 313 313 313 311 311 313 314 314 314 314 314 315 315 315 313 312 312 310 309 310 309 308 308 307 307 309 310 311 312 315 317 314 311 313 314 311 310 312 314 312 310 312 313 312 310 310 310 311 311 311 311 310 312 312 311 313 314 311 309 310 309 308 308 309 310 310 310 311 311 311 311 311
Wind_Speed
28 26 25 25 27 27 27 31 29 26 27 28 28 27 28 28 28 30 31 25 22 22 20 21 23 23 23 21 19 18 18 22 21 18 24 28 25 24 21 21 21 19 18 18 19 18 17 15 14 14 12 12 10 9 5 5 7 3 2 2 1 2 2 3 5 4 1 2 3 4 10 7 4 9 9 4 8 9 8 13 11 14 15 9 6 7 21 28
28 26 25 24 25 28 27 30 32 26 25 28 28 27 27 29 30 32 31 26 24 23 21 23 23 24 22 20 19 17 17 19 21 24 29 29 26 25 23 20 20 20 19 18 19 18 17 15 13 13 12 10 7 8 8 4 4 1 2 2 3 4 3 1 1 3 1 4 7 4 8 9 5 8 11 4 6 9 7 11 13 14 16 13 8 8 20 28
28 26 25 25 23 26 28 29 32 29 25 27 28 27 28 30 32 32 32 29 25 22 23 25 25 24 22 21 20 17 18 19 24 30 29 27 28 27 25 23 22 21 21 19 18 17 15 13 11 10 11 9 6 7 7 4 3 0 2 1 4 4 2 2 2 2 2 5 8 5 5 9 8 8 11 7 4 7 9 13 15 16 19 18 13 10 19 27
28 28 25 24 23 23 27 28 31 31 29 28 28 28 29 32 33 33 33 30 25 23 25 27 27 25 24 21 19 18 21 19 26 32 25 24 26 25 25 25 23 21 21 20 17 17 15 14 11 10 10 7 6 7 6 5 3 1 3 2 4 4 2 1 2 4 4 4 6 5 2 6 10 10 11 9 4 4 15 22 22 21 21 20 19 14 17 26
27 28 26 24 23 21 24 28 28 29 30 32 29 27 30 33 33 32 32 30 26 25 26 28 27 26 24 21 20 23 23 11 17 28 23 23 23 22 23 23 24 22 21 21 19 17 15 15 13 11 10 6 7 6 5 7 4 3 2 2 5 4 2 1 4 5 5 3 3 3 2 4 7 11 15 13 7 8 16 22 22 23 20 18 20 18 18 24
26 27 27 24 23 21 23 27 28 26 28 33 31 28 29 31 32 31 32 30 27 25 26 29 27 25 23 23 24 27 25 6 5 23 25 23 23 21 21 20 21 21 20 20 19 18 16 15 13 14 10 5 7 6 6 10 6 3 1 2 5 2 2 3 6 6 6 3 2 3 4 5 5 8 14 18 19 17 13 12 14 18 20 18 18 20 20 22
25 25 26 25 24 22 23 27 30 27 25 30 33 30 27 30 32 32 33 32 30 28 27 30 28 26 26 27 28 28 29 11 1 17 26 23 23 22 20 19 19 19 19 19 19 19 18 17 15 15 11 4 7 8 7 9 5 3 2 3 3 2 3 6 8 6 5 3 4 5 6 6 7 6 8 19 28 24 15 9 7 11 17 19 19 21 21 21
24 24 25 25 25 23 23 26 30 30 26 26 32 32 27 30 34 34 34 31 31 31 29 32 29 29 31 31 31 25 28 21 1 10 25 25 24 23 22 20 19 17 18 18 19 20 17 18 17 15 9 3 7 9 8 7 1 2 3 2 2 2 5 9 9 5 5 3 3 5 8 8 10 7 6 19 27 24 22 16 8 7 13 19 21 21 21 21
23 24 24 25 25 24 23 25 28 30 28 25 30 35 30 30 36 37 34 32 33 33 32 34 32 34 34 32 30 20 25 30 11 7 21 28 26 25 26 23 22 20 19 18 16 17 16 16 18 14 7 6 9 8 12 9 2 7 8 4 5 8 9 11 9 5 5 4 2 4 7 8 9 6 10 22 24 21 22 20 15 11 12 17 20 22 22 22
22 23 24 24 25 24 23 25 26 29 30 27 27 36 35 31 37 38 35 35 35 36 35 35 36 37 35 33 26 14 23 34 22 9 13 26 29 26 28 26 25 24 20 19 16 15 15 13 15 12 5 8 9 8 13 9 1 7 10 7 10 14 14 13 11 10 8 5 3 5 4 4 5 4 7 15 14 16 20 20 20 17 14 15 19 22 23 23
22 22 23 23 24 24 23 25 26 27 31 30 26 32 35 31 36 39 36 36 36 36 36 37 39 39 35 34 25 15 23 32 29 19 9 19 31 28 28 26 25 25 21 20 17 15 14 11 13 12 4 6 9 8 11 8 2 6 5 4 9 14 15 14 13 12 7 3 5 5 1 1 4 4 11 13 6 10 17 19 21 20 18 16 18 21 23 24
22 22 22 22 23 23 23 25 26 26 30 33 28 27 31 30 36 40 36 37 38 35 36 39 41 40 34 31 28 23 24 26 29 27 13 16 30 28 26 24 22 23 21 19 17 14 13 11 14 13 5 7 9 5 8 9 4 5 3 1 5 7 9 12 12 9 5 3 4 5 0 3 3 9 18 15 8 9 13 17 19 21 21 19 19 22 24 24
23 23 22 22 23 23 22 23 26 26 27 33 31 28 30 29 33 39 36 36 39 36 38 41 41 40 33 24 28 30 25 20 23 26 17 16 27 26 23 23 20 19 18 17 16 14 13 11 13 15 9 10 9 4 5 8 6 4 3 1 3 5 5 7 7 8 6 3 5 6 3 5 6 17 21 14 12 12 13 16 18 19 21 21 21 23 25 25
23 24 23 23 22 23 23 23 26 26 26 31 33 31 30 29 31 38 39 37 39 39 39 42 40 38 33 21 23 32 28 19 18 23 19 19 26 25 23 23 20 20 18 17 16 14 14 12 13 15 11 8 9 8 5 5 4 3 3 1 1 0 4 5 1 5 5 4 7 6 5 5 6 16 18 14 14 14 17 19 18 19 21 22 23 24 25 26
24 24 24 24 23 23 23 23 25 26 26 28 34 33 30 30 30 36 42 40 40 42 42 44 41 36 27 18 21 30 31 23 19 22 20 21 27 27 25 24 22 21 20 19 18 16 15 15 15 14 9 8 10 8 3 2 2 1 2 0 1 2 4 7 2 7 5 3 8 7 4 5 7 14 13 13 15 15 19 20 19 21 21 23 24 25 26 26
24 25 25 25 24 24 24 24 25 26 26 26 32 34 31 30 30 33 41 42 42 45 44 42 42 38 21 13 20 26 31 30 23 24 22 20 25 27 25 23 21 20 19 17 17 18 17 16 15 12 10 8 7 5 3 2 1 2 1 2 1 3 2 4 3 4 4 1 6 7 4 3 4 8 7 10 16 17 19 20 20 22 22 23 25 25 27 27
24 25 26 25 25 25 24 25 25 26 26 26 30 34 34 31 28 30 39 44 43 45 47 43 44 37 15 11 19 25 32 34 28 26 25 21 21 24 25 23 22 20 19 17 16 19 18 15 13 8 6 5 3 4 3 3 2 1 1 3 3 3 2 2 2 2 3 1 2 5 5 6 6 7 6 6 11 15 18 22 22 21 22 23 25 26 28 29
24 25 26 26 26 26 26 25 25 26 26 26 28 33 35 30 24 29 41 48 45 43 41 40 41 25 9 17 25 26 33 35 30 28 27 24 21 24 26 24 23 22 20 17 15 18 15 11 9 4 3 3 3 5 5 5 5 5 4 3 2 1 0 2 3 3 5 1 2 3 5 9 10 13 17 13 9 13 16 19 20 20 23 23 25 27 28 30
25 26 27 28 28 28 28 27 27 26 26 26 26 29 31 28 26 34 47 51 43 32 21 30 39 16 4 22 29 24 30 34 29 28 30 29 25 25 26 24 25 26 21 13 9 14 13 7 5 4 4 6 6 7 7 5 7 7 5 4 2 2 2 3 4 2 3 1 4 5 6 8 9 12 20 18 12 14 16 16 17 19 22 23 26 29 30 31
26 27 28 29 29 30 30 30 29 27 27 26 27 27 25 25 22 24 46 55 48 37 26 40 49 20 6 19 28 21 24 31 29 30 33 32 30 28 26 23 23 20 14 9 7 12 13 5 4 6 6 9 9 7 5 4 6 7 5 3 3 3 4 2 3 3 3 1 5 6 5 9 10 10 18 19 10 13 17 17 20 21 22 23 24 27 30 32
26 27 28 30 30 30 30 31 32 30 29 28 30 29 25 28 17 9 33 46 51 49 35 45 52 26 9 16 27 28 28 27 29 34 34 33 33 27 24 23 17 9 7 11 11 10 10 6 6 6 7 10 9 6 6 5 6 6 6 4 3 3 5 3 3 4 3 1 4 4 4 8 11 10 18 20 9 13 20 20 22 25 24 25 24 25 27 29
27 28 28 30 30 31 31 31 33 33 31 30 34 35 35 39 27 16 26 27 36 43 33 44 48 29 14 12 23 33 30 21 23 34 35 35 34 24 21 19 11 6 7 11 10 7 6 5 6 8 9 9 6 6 7 6 6 4 4 4 3 3 3 4 3 4 3 2 3 5 4 8 11 10 17 20 13 17 25 24 25 26 24 25 25 26 26 26
29 29 29 30 29 31 31 30 31 33 34 34 39 42 43 44 34 27 30 17 16 28 33 48 47 32 24 18 26 37 31 21 24 36 39 37 34 26 22 16 9 9 9 9 8 7 5 5 9 11 11 10 5 5 6 5 4 3 4 5 3 3 1 2 2 4 2 1 3 5 5 8 9 8 13 19 19 22 27 27 28 29 26 27 27 27 27 26
31 31 32 31 28 29 29 27 29 33 37 38 44 49 45 42 36 30 26 8 2 14 29 48 49 41 36 28 33 39 32 27 28 38 43 39 32 25 21 16 13 10 9 11 11 8 3 4 13 12 8 11 7 6 7 5 2 2 4 5 3 3 4 3 2 4 3 2 2 3 6 7 6 8 11 11 12 17 24 24 27 30 30 30 29 28 29 29
31 31 32 32 30 28 27 28 32 37 40 42 50 52 44 41 38 32 23 3 1 10 22 40 39 36 40 32 32 35 28 24 26 38 45 42 35 24 16 15 13 10 11 12 10 6 1 5 16 12 6 10 8 6 7 7 5 2 4 6 7 7 5 1 2 4 3 3 2 3 3 7 3 6 9 5 3 9 15 17 23 29 29 29 31 30 31 31
33 32 32 33 32 30 28 31 37 40 41 47 54 50 44 44 40 34 22 1 3 6 12 30 27 28 38 32 33 33 21 15 22 38 43 37 35 26 17 10 4 7 12 10 5 3 1 5 10 9 8 9 7 7 7 8 6 2 4 6 7 7 6 3 3 3 1 4 3 2 2 6 6 7 8 6 6 8 10 12 18 25 26 27 29 29 29 31
36 36 35 35 35 34 32 35 41 42 45 52 54 48 45 46 41 34 18 3 6 8 10 22 22 29 37 35 41 28 9 15 22 33 41 34 30 26 17 10 4 6 9 7 4 2 5 8 6 7 9 7 7 6 5 8 6 2 5 9 8 6 5 4 4 3 3 3 3 1 2 4 7 7 6 5 9 11 10 10 12 19 25 27 29 29 28 28
38 38 39 39 39 38 36 39 42 47 55 56 51 49 47 45 42 29 12 5 7 10 10 14 17 30 36 40 44 20 11 28 21 22 39 34 25 20 13 11 11 11 9 8 6 2 6 11 11 11 9 6 6 5 6 9 4 2 5 7 7 6 5 4 4 2 1 2 3 1 3 3 7 6 4 2 8 14 12 9 10 15 23 28 30 31 30 28
39 40 41 41 41 41 41 44 48 53 60 56 50 50 47 46 38 18 5 5 6 7 12 17 16 28 36 34 29 16 19 22 11 19 34 26 21 14 7 10 15 12 6 5 5 2 1 9 14 12 7 6 5 5 10 10 2 3 7 5 4 4 4 3 3 2 2 2 4 3 3 3 7 6 3 1 6 11 9 6 10 16 22 25 27 28 29 29
40 40 41 41 40 42 42 46 55 59 61 57 51 48 46 40 25 8 7 7 5 3 13 18 16 25 34 23 10 14 17 9 13 26 21 13 17 13 12 16 16 10 3 7 5 1 3 4 10 6 4 7 7 6 8 10 9 10 7 5 5 4 4 3 1 3 1 4 3 5 7 4 5 5 5 5 5 7 7 6 9 15 22 25 25 24 24 26
40 40 40 40 40 41 40 49 62 63 60 55 46 44 40 25 10 7 8 6 6 5 10 13 15 24 29 18 8 14 13 6 17 25 12 8 13 13 15 14 9 6 2 3 3 3 6 5 4 2 7 11 8 4 2 6 13 12 5 4 5 2 3 3 3 2 2 4 1 3 5 6 7 5 3 6 5 4 6 7 7 12 19 24 25 25 25 24
41 41 40 40 42 42 45 58 65 62 58 53 48 45 28 11 9 8 4 6 6 8 11 13 17 22 23 18 12 15 13 9 15 17 12 10 8 11 12 8 8 7 4 7 3 2 3 1 2 2 9 13 10 5 3 2 7 6 4 7 5 1 1 0 1 1 4 4 1 2 3 3 10 8 4 8 9 8 10 12 12 14 19 23 22 22 22 20
43 43 41 43 46 46 52 63 65 62 59 55 51 38 16 7 10 6 6 5 5 8 13 15 19 24 25 19 12 13 14 11 15 14 11 9 8 9 5 5 10 6 4 9 6 3 1 4 3 3 4 10 11 8 4 3 6 5 6 7 5 3 2 3 3 1 3 3 1 2 2 2 9 6 5 11 13 14 14 15 18 19 22 26 24 24 22 19
44 43 41 44 47 50 58 65 64 63 63 59 44 22 11 11 4 6 8 6 5 11 13 15 19 24 24 17 14 15 11 9 16 15 11 10 9 8 5 7 11 4 5 8 4 6 5 2 5 6 4 8 9 7 7 6 5 5 3 4 4 4 4 4 3 2 3 2 2 1 1 3 4 3 4 9 12 16 17 17 20 21 23 25 26 27 26 23
43 41 40 42 46 55 64 66 63 65 68 55 26 8 12 12 3 5 7 5 8 12 13 17 20 20 15 11 15 15 5 6 16 14 11 13 11 13 11 12 12 7 7 8 3 4 5 2 3 2 7 13 11 8 9 10 4 2 2 2 2 3 3 3 3 4 3 1 1 2 4 4 4 6 9 10 11 13 15 17 18 20 21 21 22 22 22 21
40 41 41 40 50 62 67 66 63 68 68 42 11 7 12 7 3 4 6 9 12 15 17 16 15 15 9 5 12 11 2 7 18 11 8 11 9 12 11 9 12 11 10 9 4 3 4 1 3 3 5 12 12 13 13 11 6 2 3 5 3 4 5 4 2 0 3 2 3 2 5 5 4 6 9 9 9 10 11 11 12 15 14 14 16 17 17 17
39 40 38 44 57 66 68 67 66 69 62 30 8 10 10 6 4 4 8 15 20 22 21 15 9 10 9 6 7 10 8 9 15 10 8 8 7 12 12 9 14 15 11 7 3 3 6 3 3 2 3 5 8 14 11 5 5 5 6 6 4 3 3 4 1 2 2 2 3 1 5 5 2 4 5 6 5 9 10 7 7 9 9 10 13 15 17 17
40 36 38 53 61 66 70 68 67 67 46 17 10 13 7 6 7 6 11 17 21 22 17 12 8 5 10 12 6 10 15 13 11 9 9 8 6 13 17 11 13 18 14 7 3 3 6 5 3 1 2 2 3 10 6 1 1 3 5 7 6 3 1 3 2 1 1 2 4 3 4 4 4 5 6 7 6 8 10 8 5 7 8 9 11 14 15 15
39 28 36 56 65 69 73 68 66 58 29 9 14 14 5 5 9 14 20 19 18 19 14 11 10 5 9 15 12 13 16 14 14 11 10 9 5 12 20 11 9 18 18 8 5 3 4 5 1 2 1 1 1 4 6 3 1 3 2 5 3 2 3 4 3 3 3 2 3 3 4 3 6 5 5 10 11 8 9 9 5 6 8 9 12 13 14 16
33 23 24 55 72 71 75 70 57 38 13 8 16 11 4 6 10 21 31 28 15 9 11 12 13 11 10 13 14 14 12 13 17 12 8 11 5 6 18 13 8 16 16 8 5 4 3 4 4 0 1 2 2 4 7 9 6 3 5 7 5 2 2 2 2 2 4 3 2 2 4 5 5 4 7 10 10 9 10 10 8 9 10 10 11 10 12 16
31 18 16 59 76 72 74 54 29 14 5 11 16 8 5 7 12 19 30 32 18 4 8 15 16 15 14 14 12 11 10 11 15 10 5 10 8 4 14 18 16 17 12 6 6 5 2 3 6 4 2 4 4 4 5 8 9 7 6 7 8 6 4 3 2 1 2 3 4 2 5 7 5 4 6 8 8 8 9 8 10 16 15 10 7 9 12 16
26 8 23 66 75 74 63 25 9 12 9 13 13 7 7 7 13 20 21 21 13 3 7 12 13 15 16 16 15 12 11 10 14 12 5 10 12 5 12 24 27 22 13 6 6 6 4 5 6 3 3 4 4 3 1 3 4 5 2 3 5 4 4 6 3 2 1 1 2 3 3 7 5 4 6 8 6 5 6 7 11 15 13 8 7 10 13 16
18 11 40 70 76 77 49 9 10 16 9 13 14 10 12 9 11 20 18 14 7 2 7 7 7 11 12 15 16 14 12 10 12 10 4 6 7 5 17 32 32 23 12 6 7 6 5 5 5 3 0 3 3 2 2 2 2 3 1 1 4 4 4 5 4 4 2 3 3 3 3 7 5 3 6 7 6 7 7 7 10 14 12 9 7 12 15 16
22 26 49 63 74 73 34 5 14 14 10 16 13 12 15 9 12 19 18 14 7 5 10 9 7 9 9 13 17 17 15 9 7 6 3 3 5 12 29 39 34 22 11 9 12 9 4 3 4 7 3 3 3 2 2 1 3 3 2 3 5 7 7 4 4 4 3 7 9 5 6 7 4 4 4 5 4 6 7 6 8 12 13 10 8 10 14 16
21 22 40 53 68 60 24 13 17 11 14 18 12 15 15 6 13 22 20 15 10 10 12 12 15 14 10 13 14 15 13 6 5 7 3 3 3 11 29 41 36 23 12 15 20 14 6 4 5 8 8 7 7 5 5 5 4 2 5 10 12 13 14 8 4 4 7 8 12 10 8 3 3 4 4 5 5 6 9 7 8 10 10 10 10 13 17 18
14 8 18 30 46 41 22 23 22 10 14 17 12 14 15 10 10 19 23 15 9 13 11 10 17 16 13 15 13 13 11 2 3 8 6 7 5 3 22 38 32 20 19 26 27 15 5 3 7 9 11 11 8 5 6 11 10 8 10 14 13 12 13 8 4 5 6 4 7 14 10 4 5 5 5 7 6 6 9 10 10 9 8 11 15 19 23 25
14 9 12 14 20 20 15 18 17 11 13 15 11 9 16 19 11 14 17 7 4 11 9 8 16 15 16 20 14 13 12 5 5 10 9 8 5 2 19 29 23 22 25 26 26 14 4 6 11 10 7 3 3 5 10 16 17 16 14 14 13 12 13 13 11 9 6 5 7 10 7 7 8 7 8 9 8 8 10 11 13 14 17 22 24 25 27 29
9 11 23 29 20 11 13 14 13 15 18 15 10 8 16 23 18 14 10 2 5 12 8 9 18 20 24 25 15 14 14 6 6 11 9 7 5 6 14 14 14 26 28 21 20 12 4 8 10 8 5 3 5 7 12 14 12 10 14 16 16 16 17 19 20 13 8 8 12 6 9 11 10 7 10 10 11 14 15 17 21 25 28 28 28 29 30 30
8 10 19 31 22 12 17 18 13 17 20 17 10 9 16 23 22 17 8 4 9 11 10 14 18 21 24 23 16 15 15 11 9 10 11 14 14 12 13 7 7 17 17 13 11 5 3 5 4 7 6 5 6 5 8 11 9 6 11 15 16 20 22 23 23 15 11 17 15 3 2 11 8 7 11 13 15 15 16 19 22 23 26 27 29 32 32 33
12 16 18 19 14 13 19 17 15 15 16 16 12 8 14 20 22 17 11 12 14 11 13 18 20 22 24 23 19 18 23 25 23 20 17 16 14 13 12 7 5 8 8 8 6 1 3 3 1 6 7 6 5 5 5 6 9 8 10 14 17 21 21 19 17 10 11 18 12 3 11 14 7 10 13 13 13 14 18 24 25 26 29 30 31 33 35 37
12 27 37 25 11 15 18 12 14 15 11 13 14 11 14 18 20 17 11 13 17 16 19 24 25 21 19 23 24 24 30 31 25 27 28 24 21 18 10 7 9 10 8 7 5 2 4 3 1 6 6 1 1 5 6 5 5 4 11 18 20 19 14 13 12 10 13 16 9 6 14 13 7 9 11 11 14 18 23 27 29 32 33 32 33 36 38 38
15 28 41 30 13 16 18 11 13 15 11 11 13 13 16 17 19 19 11 7 10 16 21 26 28 21 17 23 27 25 25 20 16 23 26 23 23 20 17 21 24 19 11 7 5 3 5 5 3 6 6 4 4 7 7 6 4 5 14 18 18 16 12 10 11 15 17 13 8 11 15 10 5 6 8 8 13 17 22 27 31 33 33 34 35 35 35 34
Wind_Direction
235 235 233 232 225 224 227 224 224 224 223 220 217 219 219 220 224 223 217 220 231 232 231 220 208 204 205 206 208 200 192 200 201 208 221 214 209 214 218 218 219 218 217 218 219 223 221 216 216 214 215 211 223 237 240 331 343 348 86 99 202 179 190 183 175 197 180 344 333 212 195 191 195 194 191 193 200 206 209 209 213 211 214 214 203 185 181 183
233 234 233 232 227 223 225 223 222 226 226 220 217 218 217 216 219 220 217 222 231 229 225 217 207 206 206 206 211 213 216 222 224 224 218 213 214 217 219 222 220 218 216 216 215 220 222 218 219 216 205 193 203 224 225 282 352 33 111 122 208 199 200 155 163 235 257 322 318 284 206 210 216 192 191 199 203 199 206 215 217 217 217 212 198 185 185 185
232 235 234 232 229 223 225 224 221 225 229 224 219 216 217 217 216 219 221 224 227 223 217 211 205 205 205 206 208 213 223 226 231 231 221 217 222 221 221 222 220 220 216 212 209 212 216 209 207 200 183 168 170 188 204 239 312 348 137 175 227 216 209 64 34 5 359 313 316 317 227 219 223 198 193 203 197 193 211 216 213 218 219 212 199 187 187 190
230 234 236 232 230 224 224 223 220 224 230 228 222 216 216 218 215 216 221 224 225 222 212 206 204 202 200 201 200 204 208 212 228 229 219 215 219 216 218 219 218 220 218 215 210 209 211 206 202 191 174 156 151 162 176 200 234 208 161 194 204 194 184 105 28 4 349 330 321 306 259 233 225 206 199 193 170 218 230 224 222 226 224 212 203 194 192 195
228 232 235 233 230 225 222 221 219 222 226 227 225 221 217 218 217 215 220 223 223 222 210 204 203 200 196 191 192 195 190 196 234 226 214 209 210 210 213 214 215 218 218 217 216 212 212 213 208 192 179 158 142 151 181 181 178 179 179 164 150 153 184 279 333 336 328 335 315 269 243 248 220 209 210 196 192 233 237 236 235 238 234 223 213 204 197 199
227 230 232 233 230 225 219 219 221 221 224 225 223 224 221 221 221 214 218 220 216 217 209 203 202 196 188 184 188 188 183 176 247 212 206 204 203 205 207 209 211 214 216 217 216 213 210 204 199 184 166 144 160 169 181 174 171 181 197 158 150 174 256 316 325 327 322 297 262 247 248 248 209 223 223 211 222 234 242 251 246 242 237 231 224 214 206 204
227 228 230 231 230 226 217 216 222 223 224 223 220 223 222 222 223 217 217 218 216 216 207 201 200 190 183 182 184 186 194 208 350 195 196 197 201 200 199 200 200 203 206 210 209 207 204 192 185 175 155 124 179 184 176 166 156 145 164 205 182 252 284 331 332 325 321 274 261 261 257 247 217 231 227 225 235 235 237 251 249 244 235 229 226 220 218 215
226 227 228 229 230 228 219 215 221 224 226 224 219 219 219 219 222 220 218 218 216 213 204 200 195 185 181 180 181 187 204 210 177 177 188 193 199 199 196 192 191 192 192 198 201 195 190 184 178 170 161 149 174 177 169 157 116 173 164 215 237 275 281 327 333 318 324 295 275 252 246 247 234 236 238 244 246 236 233 239 243 246 231 227 227 225 224 221
226 226 226 228 229 228 222 217 220 223 225 227 220 216 217 218 218 219 220 218 215 209 202 199 191 184 183 183 183 192 208 206 205 173 185 192 195 199 198 191 187 185 180 183 190 185 177 174 174 172 173 161 155 161 165 164 249 214 201 235 278 286 292 317 324 319 318 294 257 230 250 261 241 244 258 258 256 242 236 235 237 242 233 227 228 229 227 224
227 226 225 228 228 229 225 219 221 222 222 225 223 217 218 221 217 216 217 217 216 208 199 196 189 184 186 186 184 196 208 204 210 205 187 194 193 194 197 195 191 187 185 185 188 194 188 182 182 178 171 153 151 155 166 175 213 183 196 235 267 281 293 303 303 306 304 277 235 218 256 273 213 196 259 266 262 244 237 233 233 235 237 232 229 230 229 229
228 227 226 228 228 229 224 221 223 221 221 222 224 222 221 226 220 213 213 216 215 206 198 193 188 187 187 188 188 197 203 204 212 214 211 201 195 193 193 193 194 190 191 192 195 205 204 205 196 186 179 158 152 148 170 189 145 137 165 241 265 280 290 289 288 296 299 266 230 205 215 290 163 179 246 259 270 241 232 231 232 231 235 234 230 230 229 230
228 228 226 227 229 230 224 221 222 221 222 220 223 224 220 226 220 211 210 214 213 207 200 192 190 191 187 191 200 204 203 207 212 215 226 206 195 195 194 192 195 195 197 197 198 204 207 211 203 198 190 157 144 139 193 197 155 125 129 251 286 310 299 282 274 274 286 286 212 158 341 282 186 226 246 251 250 239 229 227 229 229 232 231 229 228 228 230
229 228 227 226 227 230 226 220 221 222 222 220 222 222 218 222 217 210 210 212 212 212 204 193 191 193 189 194 208 210 211 214 212 213 220 199 188 191 191 191 193 195 199 199 198 197 198 205 208 203 179 157 148 122 171 169 143 124 110 150 319 353 306 280 272 246 243 253 182 149 256 272 233 239 245 248 240 235 233 231 230 229 230 229 227 227 227 228
230 231 229 227 226 228 228 221 220 223 222 220 220 221 220 221 218 212 213 213 211 214 206 192 190 192 192 199 209 212 216 218 210 206 206 188 180 182 184 188 189 191 196 199 200 200 198 202 205 194 171 159 155 125 109 120 121 127 113 107 53 3 268 291 301 194 204 228 191 172 248 261 263 255 249 246 240 235 236 236 235 233 230 229 227 226 227 228
230 232 230 230 228 227 229 225 221 222 222 219 218 221 221 222 223 212 212 215 212 212 202 190 190 189 189 200 210 213 214 216 210 197 196 183 177 180 182 187 191 194 198 199 203 207 206 200 191 176 150 140 145 127 80 63 45 66 149 242 7 184 264 304 278 185 198 217 181 178 252 259 262 269 263 247 235 231 238 239 238 238 234 230 229 228 230 231
230 232 232 232 230 228 229 227 224 223 222 219 217 219 220 223 227 215 209 212 209 204 193 186 188 186 184 195 203 210 210 213 210 192 190 182 176 178 177 182 185 187 191 192 201 202 195 183 170 156 138 134 143 123 85 120 23 15 165 207 237 191 230 310 292 198 218 220 184 197 238 273 265 272 260 234 228 224 233 240 238 238 236 232 231 232 233 234
232 231 234 234 233 231 229 227 227 225 223 221 217 217 220 224 230 224 210 206 205 196 188 186 185 184 185 185 192 204 205 207 206 193 187 180 178 175 169 171 174 178 178 174 182 180 171 162 154 149 140 135 152 142 143 188 195 39 193 214 222 195 183 278 302 16 5 360 234 228 230 245 266 283 260 222 227 225 230 240 241 241 240 235 234 234 235 236
237 234 234 234 236 234 231 229 226 226 224 221 219 216 221 223 228 228 209 199 196 190 188 186 180 181 199 191 193 202 201 201 199 191 185 178 180 177 167 165 168 167 159 151 159 159 153 152 145 136 135 142 163 167 188 197 177 181 189 197 231 207 181 269 256 2 16 13 274 270 258 255 266 277 265 252 240 236 239 246 249 248 246 243 239 238 238 239
243 240 237 234 236 234 234 233 226 226 224 222 222 219 225 227 228 224 203 189 182 180 182 176 174 177 216 191 194 199 197 196 192 187 184 177 179 181 172 167 165 158 147 138 154 155 145 134 140 165 168 171 185 187 198 185 172 182 173 165 165 188 234 258 248 295 25 1 267 249 247 260 264 268 264 259 250 246 252 254 253 251 248 247 244 243 242 242
247 246 243 239 238 235 235 234 230 226 221 223 223 220 226 223 227 216 190 183 183 183 179 175 177 172 107 171 184 184 181 189 191 184 182 178 177 177 171 165 158 154 150 144 155 160 154 149 177 187 174 178 190 185 175 153 153 152 138 164 171 192 244 251 254 300 48 65 268 246 236 256 256 258 264 265 256 245 249 249 249 249 248 249 248 248 247 246
249 249 248 244 240 237 236 234 232 227 220 224 223 224 223 211 222 206 175 182 189 189 182 177 178 173 134 161 180 175 164 176 190 184 180 177 175 172 166 162 154 152 157 134 128 148 163 185 192 184 174 176 184 167 141 134 132 132 138 168 179 199 252 248 240 308 22 139 270 284 268 262 256 257 264 261 244 237 244 243 247 250 250 252 253 254 255 253
248 249 250 247 243 238 237 235 233 229 224 226 227 230 227 214 223 217 180 182 190 188 180 174 176 176 168 170 185 181 165 158 176 180 177 173 175 175 166 166 160 149 143 126 120 139 177 205 182 175 170 162 171 160 143 142 129 115 128 143 183 204 276 276 259 327 8 159 265 307 297 267 260 258 262 259 245 246 251 248 250 254 252 253 255 258 259 258
249 250 250 250 247 239 240 237 232 231 227 227 228 230 227 215 221 217 190 176 185 187 176 172 175 175 168 164 177 178 169 160 167 176 176 173 176 178 168 167 158 142 150 155 151 158 184 208 175 167 159 149 156 157 136 123 111 100 126 138 196 195 169 262 282 325 324 199 265 301 300 275 266 260 261 257 249 255 258 254 254 254 252 254 257 260 261 260
250 251 251 252 248 238 237 235 230 229 227 228 227 226 223 214 221 217 189 151 136 189 180 176 177 178 174 172 176 176 175 174 171 174 175 173 173 174 171 163 149 146 167 171 163 162 166 174 161 150 146 150 150 156 146 141 149 165 167 155 172 171 165 209 287 321 324 343 328 344 312 277 253 246 255 255 243 249 255 252 250 249 248 252 255 256 260 261
251 253 254 253 246 233 231 234 230 225 224 228 226 224 222 217 222 212 187 126 65 181 182 177 176 177 176 176 179 176 172 173 176 175 174 174 170 164 165 164 155 161 171 163 157 161 168 164 157 144 145 156 152 171 171 165 168 203 217 186 171 165 156 169 349 1 2 326 324 41 310 274 277 258 261 276 250 244 251 246 243 246 246 245 248 252 257 261
253 255 256 253 244 230 233 241 233 222 222 227 225 222 218 217 225 212 190 212 229 185 173 171 170 176 175 171 171 170 168 173 178 176 174 175 172 158 152 160 148 161 161 150 148 169 161 150 149 144 151 155 159 187 190 168 153 206 224 169 151 148 131 96 45 56 213 259 275 81 197 268 307 284 263 272 274 264 259 253 247 249 248 243 246 252 255 259
258 257 256 255 243 232 240 244 233 222 221 224 222 219 216 216 222 211 194 259 212 173 161 165 166 177 178 170 167 168 166 157 162 177 176 173 173 163 160 163 128 154 155 136 165 189 129 135 134 143 151 160 178 189 195 167 145 212 196 143 133 136 140 134 88 108 220 273 305 56 132 265 289 272 264 269 271 271 264 266 265 257 255 250 248 250 253 256
261 259 258 255 244 237 242 241 231 220 218 220 216 214 215 215 214 202 197 252 181 143 152 161 162 173 172 167 168 163 138 151 152 179 177 170 172 169 171 177 153 155 160 154 183 178 129 160 169 160 160 183 186 165 157 157 149 228 179 145 148 146 141 139 106 134 228 1 309 341 98 266 270 265 299 313 257 261 262 266 268 259 258 255 252 251 252 253
263 262 259 254 246 240 239 234 226 219 217 215 211 211 211 211 207 198 220 226 149 128 153 156 162 163 156 158 165 146 139 153 147 169 173 171 175 170 163 165 144 136 135 112 152 162 119 183 173 156 164 191 176 148 157 164 170 169 147 108 100 101 85 99 106 109 58 327 253 191 143 255 272 253 251 291 248 252 260 263 258 256 256 256 255 254 252 252
263 264 259 253 247 241 236 228 222 221 217 210 207 207 203 202 203 207 226 189 119 143 151 149 159 153 148 150 152 138 144 148 134 151 164 165 163 152 124 134 129 120 67 44 87 125 6 152 162 149 164 169 147 135 161 166 139 124 123 95 80 55 37 52 56 75 39 279 231 186 174 191 278 259 203 216 224 221 230 242 253 253 250 250 252 254 254 253
264 265 259 250 243 241 232 217 216 220 213 203 200 195 189 192 211 234 217 154 105 168 151 140 150 149 151 153 139 146 144 121 142 148 153 150 148 134 123 130 124 110 91 59 64 352 28 104 162 160 146 138 114 94 86 135 136 127 126 128 104 30 20 23 3 55 225 242 193 210 178 159 235 253 198 233 244 224 229 232 242 248 248 247 246 250 254 256
267 264 258 244 235 239 231 214 211 210 202 195 189 182 178 193 224 223 189 141 158 180 155 143 152 153 156 153 148 152 141 137 156 154 156 156 152 151 148 162 157 136 172 174 143 32 56 120 236 150 154 150 132 111 50 82 149 143 138 139 123 74 63 204 228 169 229 239 165 208 147 166 241 255 263 260 260 250 235 229 240 256 264 264 260 258 260 261
269 264 255 238 231 239 230 212 205 197 190 187 180 174 177 228 223 178 137 171 180 160 151 150 156 156 154 153 154 150 139 150 163 158 154 148 149 161 151 157 157 135 162 165 143 126 122 307 251 145 172 174 156 146 148 171 181 166 151 156 152 139 161 202 201 207 250 264 280 186 127 257 270 279 250 244 253 256 248 247 258 268 274 277 279 280 279 275
268 262 252 236 229 231 219 204 196 188 182 179 174 172 193 219 225 119 147 184 145 143 152 149 150 155 155 154 156 152 141 159 165 156 150 145 153 165 164 179 172 107 100 146 158 165 162 263 206 173 178 176 164 161 152 133 154 171 143 141 152 152 174 190 185 200 219 247 284 248 165 209 237 272 238 239 264 274 270 265 268 270 272 277 282 285 288 286
267 256 248 239 226 216 206 195 189 183 176 172 173 191 201 202 208 145 160 157 138 143 147 145 146 151 155 149 154 158 148 167 164 155 156 161 169 176 174 183 179 137 129 157 173 172 168 225 233 180 161 164 163 162 139 118 133 224 99 120 207 183 144 144 188 187 164 189 243 217 234 221 216 268 275 268 274 280 272 267 269 270 271 277 283 287 292 292
266 254 247 234 212 203 197 188 184 180 173 168 180 213 197 199 196 180 165 150 150 142 137 147 151 148 147 141 159 162 84 155 160 154 168 169 172 180 177 181 179 164 159 158 142 161 163 187 332 18 149 170 167 163 158 148 152 174 177 186 194 151 121 119 215 357 95 203 247 210 252 288 312 284 281 277 272 276 276 273 274 273 276 286 295 304 307 303
269 262 240 213 200 196 190 183 180 177 172 170 198 198 198 212 170 160 170 157 151 147 145 153 162 152 144 137 165 158 120 145 160 151 163 171 178 186 183 187 181 177 174 151 117 182 149 100 338 36 149 196 166 155 160 156 133 144 185 185 128 94 88 108 173 352 65 237 273 244 248 279 299 274 314 349 308 278 277 278 278 283 293 301 310 322 321 315
271 256 214 199 197 190 183 181 178 174 171 174 197 192 203 205 168 167 177 159 150 154 154 153 155 150 152 148 155 160 147 153 167 157 160 177 203 187 182 187 180 181 184 154 114 177 133 98 327 320 153 208 139 143 152 334 83 135 176 175 144 138 196 144 162 190 146 240 280 292 283 264 210 235 305 321 282 261 269 274 278 290 298 309 325 334 334 337
263 232 194 194 193 183 179 178 174 172 173 180 191 193 191 162 167 176 174 161 154 158 154 151 148 137 161 156 148 163 165 162 168 164 168 185 209 190 183 182 171 179 184 163 136 159 115 111 215 290 191 163 119 155 172 177 75 47 123 173 162 134 168 169 167 161 151 195 262 307 320 270 223 214 229 250 251 244 260 276 277 271 294 328 343 347 354 6
236 196 178 184 182 177 174 173 171 174 180 181 184 187 158 145 168 180 175 163 156 165 157 153 150 141 155 157 150 164 167 162 169 171 175 179 174 193 190 178 150 169 177 165 144 137 86 111 142 233 308 168 187 197 180 171 166 148 158 180 195 180 143 144 164 140 129 157 198 291 297 265 246 204 196 235 254 245 252 275 281 278 302 340 349 348 359 12
201 172 164 172 173 171 168 167 172 175 170 186 187 176 160 159 156 177 182 169 158 165 156 157 158 148 147 153 158 168 158 155 173 175 170 178 169 199 196 176 154 158 163 151 152 151 81 105 133 143 168 183 226 243 186 183 187 175 174 188 186 176 137 126 197 291 83 160 173 180 269 269 249 203 201 224 241 245 253 276 284 286 303 331 345 346 359 12
184 162 161 167 169 167 163 161 175 170 178 186 171 134 150 165 156 170 187 178 165 135 135 153 163 152 148 156 162 166 157 158 179 181 176 187 184 188 179 163 154 158 155 133 155 159 111 101 116 134 186 204 248 272 203 204 190 153 170 195 164 163 140 131 182 235 163 211 156 122 266 274 252 212 209 220 246 292 295 289 285 289 301 315 333 351 4 12
171 144 157 165 169 165 161 165 168 169 191 170 144 134 155 165 166 167 173 179 185 156 138 140 152 153 154 157 155 160 161 161 181 182 142 169 187 159 154 153 151 158 160 139 156 160 117 99 104 105 294 301 317 329 23 30 118 149 227 146 137 178 172 139 171 176 157 212 153 97 269 259 256 237 228 243 287 323 306 288 284 291 303 304 323 0 10 7
151 140 151 164 170 166 163 182 164 164 177 165 156 159 158 161 179 171 166 172 180 159 148 143 152 162 157 152 154 162 163 159 184 192 113 131 171 151 153 155 156 164 174 163 168 172 143 120 131 123 103 353 347 321 268 225 158 170 185 157 166 181 169 153 153 147 218 208 164 156 243 243 271 314 294 292 326 321 295 280 270 279 295 298 310 351 356 349
144 140 148 160 169 169 173 178 164 155 161 166 166 160 152 160 193 182 166 164 174 165 156 156 157 150 142 149 153 161 166 160 170 176 129 103 140 153 160 163 166 170 169 160 164 164 149 151 155 140 150 181 193 206 209 175 154 180 181 182 191 187 179 176 141 167 224 200 167 196 234 257 322 319 321 331 349 334 310 294 270 270 288 299 307 320 322 322
146 142 145 155 167 174 182 176 170 156 154 162 163 163 158 152 194 195 174 165 182 169 154 151 147 137 141 152 150 163 174 104 105 158 161 152 147 183 173 170 169 167 157 157 160 153 113 164 188 179 177 182 184 182 136 128 151 195 194 188 194 192 186 178 143 190 206 156 184 220 229 271 304 289 293 304 310 304 291 280 268 261 277 294 298 302 303 306
157 159 153 151 163 175 183 179 178 168 156 160 160 167 165 153 164 204 190 187 193 159 139 138 144 138 151 157 152 164 164 95 103 155 162 156 117 102 171 169 166 162 156 159 165 153 97 188 195 186 179 159 130 149 141 147 173 191 184 184 192 188 184 189 204 208 149 129 231 225 201 233 257 255 264 283 299 292 286 293 294 290 294 300 300 299 300 301
162 156 161 160 155 166 180 176 178 171 161 161 159 159 168 163 164 184 196 233 173 159 137 145 160 159 160 160 157 162 160 133 139 154 146 145 122 121 164 176 177 169 163 165 175 165 129 188 187 160 144 32 58 138 156 162 175 178 176 185 190 187 189 200 214 208 148 196 236 181 156 215 229 230 247 256 268 277 289 302 303 299 298 300 299 297 297 299
132 123 151 161 158 158 164 158 162 172 169 166 164 165 170 169 168 171 170 147 169 174 155 151 165 165 162 163 158 158 164 160 166 177 166 160 158 150 159 183 202 183 170 164 181 184 118 171 169 132 128 32 39 117 151 157 157 164 185 192 192 195 199 205 213 209 194 228 240 148 201 250 225 208 232 233 244 267 288 291 288 288 288 290 291 291 292 294
149 146 149 156 154 154 156 154 159 170 173 170 171 179 175 171 169 168 167 163 164 171 162 155 163 168 167 167 164 170 180 179 178 179 165 155 163 165 167 172 168 173 167 158 181 294 83 148 56 100 103 23 18 62 74 137 163 177 198 207 205 205 207 211 216 210 216 240 249 291 286 272 216 203 229 237 255 278 285 279 276 276 277 279 282 283 286 289
160 158 157 153 145 156 158 157 162 164 173 179 176 176 178 177 170 163 173 184 172 164 165 162 163 168 169 171 178 187 189 187 179 170 163 161 168 171 170 162 148 149 150 156 168 83 81 147 75 92 112 276 271 95 83 109 130 176 226 224 212 206 207 211 213 201 212 232 232 236 262 258 200 195 217 231 251 259 262 265 268 269 269 271 274 277 283 287
151 150 156 155 145 158 159 154 165 169 169 176 174 170 175 179 173 166 170 204 194 179 176 170 164 163 170 182 191 192 183 172 152 152 156 154 154 156 151 149 153 155 151 148 157 126 118 138 128 122 150 204 189 145 133 118 106 250 243 220 200 198 196 198 215 214 210 214 204 219 242 238 168 168 189 210 229 237 248 255 260 265 269 270 272 275 282 286